Location: Brompton
(51.4000°N, 0.5333°E)
Time: 05:22:27
(UTC+00:00)

USA 215 - Pass Details

Date: 28 September 2021
Orbit: 1093 x 1114 km, 123.0° (Epoch: 14 October)

Event Time Altitude Azimuth Distance (km) Brightness Sun altitude
Exits shadow 22:17:40 13° 251° (WSW) 2,699 5.4 -37.4°
Drops below altitude 10° 22:19:43 10° 270° (W) 2,956 5.8 -37.6°
Sets 22:23:45 0° 294° (WNW) 3,924 6.8 -37.9°
